Location: Mount Graham
(32.7016°N, 109.8912°W)
Time: 23:22:40
(UTC-07:00)

Daily predictions for brighter satellites

Satellite Brightness Start Highest point End
(mag) Time Altitude Azimuth Time Altitude Azimuth Time Altitude Azimuth
Cosmos 1844 Rocket 2.7 18:48:45 10° S 18:54:19 62° ESE 18:59:53 10° NNE
Cosmos 1727 Rocket 4.1 18:49:14 10° N 18:55:27 87° W 19:01:36 10° S
FREGAT/IRIS 3.0 18:54:54 10° SSE 18:57:50 44° ENE 19:00:47 10° N
Cosmos 1812 Rocket 4.4 18:54:25 10° SSE 18:58:14 29° E 19:02:03 10° NNE
Cosmos 2278 Rocket 3.1 18:56:37 10° SSE 19:01:15 26° ESE 19:05:53 10° NE
H-2A R/B 3.8 19:04:14 10° SE 19:07:27 26° ENE 19:10:44 10° NNE
Cosmos 1378 4.2 19:05:35 10° NNE 19:08:46 26° E 19:11:55 10° SE
Meteor 2-15 Rocket 4.4 19:02:56 10° N 19:09:05 76° E 19:15:12 10° S
H-2A R/B (2) 1.7 19:08:31 10° WSW 19:11:07 47° S 19:15:05 12° ESE
Cosmos 2150 Rocket 3.9 19:07:20 10° S 19:12:25 65° ESE 19:17:31 10° NNE
Spot 2 Rocket 4.1 19:10:15 10° SE 19:14:51 36° ENE 19:19:30 10° N
Cosmos 2228 4.0 19:11:26 10° SSW 19:15:33 51° W 19:19:42 10° N
Meteor 1-24 Rocket 4.3 19:11:17 10° NNE 19:16:17 35° ENE 19:21:25 10° SE
Cosmos 1707 2.7 19:12:44 10° N 19:16:36 60° E 19:20:25 10° SSE
FENGYUN 3A 3.7 19:11:38 10° SSE 19:16:57 60° ENE 19:22:16 10° N
Delta 2 Rocket 3.9 19:13:10 10° W 19:17:51 57° N 19:21:20 14° ENE
Cosmos 2112 Rocket 4.1 19:13:11 10° NNW 19:18:28 80° WSW 19:23:40 10° SSE
Meteor 2-5 Rocket 3.7 19:13:10 10° N 19:18:52 68° E 19:24:39 10° SSE
RESURS DK-1 4.2 19:19:20 10° NNE 19:21:38 14° ENE 19:22:33 14° ENE
Cosmos 1766 3.6 19:19:58 10° SSE 19:23:35 40° E 19:27:14 10° NNE
Cosmos 1898 Rocket 4.0 19:22:52 10° SSW 19:28:08 66° WNW 19:33:25 10° N
Cosmos 990 Rocket 3.9 19:26:58 10° S 19:32:12 75° ESE 19:37:27 10° NNE
USA 215 3.2 19:25:49 10° NE 19:32:21 73° SE 19:38:50 10° SW
Envisat 4.4 19:31:44 18° E 19:32:52 19° ENE 19:36:22 10° NNE
Cosmos 192 4.3 19:29:34 10° NNW 19:34:32 84° ENE 19:39:25 10° SSE
Cosmos 1125 Rocket 4.4 19:32:44 10° SSE 19:36:50 24° E 19:40:56 10° NE
Cosmos 1544 4.0 19:38:21 26° E 19:38:21 26° E 19:41:16 10° NNE
COSMOS 2406 3.2 19:33:58 10° NNW 19:39:44 84° ENE 19:45:26 10° SSE
Helios 1A 3.7 19:40:59 26° ESE 19:42:15 32° ENE 19:45:58 10° N
Resurs 1-3 3.5 19:39:05 10° SSE 19:43:25 65° ENE 19:47:45 10° N
HJ-1C 4.0 19:40:16 10° S 19:43:36 59° W 19:46:57 10° NNW
CZ-3C R/B 3.6 19:41:54 10° WSW 19:44:31 12° SW 19:46:19 10° SSW
Delta 168 4.5 19:44:32 10° SSW 19:46:04 13° S 19:46:04 13° S
Helios 1B rocket 2.5 19:44:48 10° NNE 19:48:51 53° E 19:52:51 10° S
Cosmos 1844 4.5 19:46:05 10° SW 19:51:41 55° WNW 19:57:23 10° N
BREEZE-M DEB (TANK) 2.5 19:51:50 10° SW 19:54:32 62° SE 20:01:50 10° ENE
CZ-2D R/B 3.1 19:52:01 18° SSE 19:54:47 77° ENE 19:58:39 10° N
Lacrosse 4 Rocket 3.6 19:52:09 10° WSW 19:55:37 27° WNW 19:59:05 10° N
Tiangong 1 3.1 19:55:22 10° NNW 19:57:18 16° NNE 19:57:18 16° NNE
SL-27 R/B 2.9 19:54:44 10° N 19:57:54 43° ENE 19:57:54 43° ENE
Meteor 1-29 3.6 19:56:31 10° NNE 19:58:58 39° NE 19:58:58 39° NE
Cosmos 1805 3.1 19:58:43 15° S 20:01:48 63° E 20:05:39 10° NNE
Cosmos 2098 Rocket 4.2 20:01:51 10° S 20:08:22 63° E 20:15:46 10° NNE
Aurora 2 Rocket 4.4 20:08:47 10° SW 20:12:34 19° S 20:12:34 19° S
ALOS 4.2 20:09:51 10° SSW 20:13:53 29° W 20:17:57 10° NW
Okean 3 Rocket 3.4 20:10:10 10° N 20:14:32 72° E 20:15:03 64° SE
Yuri Rocket 3.3 20:12:10 10° WSW 20:16:08 46° S 20:16:09 46° S
SeaSat 1 4.4 20:13:41 10° SSW 20:17:48 27° WSW 20:21:57 10° NW
Cosmos 1758 3.2 20:19:19 78° N 20:19:19 78° N 20:23:03 10° N
Lacrosse 5 3.0 20:17:10 10° WSW 20:21:59 43° NW 20:26:48 10° NNE
CZ-3B DEB 4.4 20:11:22 10° WSW 20:22:14 38° NW 20:27:35 10° NNE
Cosmos 1939 Rocket 4.3 20:26:40 28° NNE 20:26:40 28° NNE 20:28:50 10° N
Cosmos 1867 3.5 20:21:38 10° SSW 20:26:25 59° SSE 20:26:25 59° SSE
Delta 2 Rocket 4.4 20:21:31 10° W 20:27:38 43° S 20:28:38 39° SSE
Resurs 01 Rocket 3.5 20:26:01 10° SSW 20:29:47 28° W 20:33:37 10° NW
Cosmos 1953 2.8 20:30:52 55° NNW 20:30:52 55° NNW 20:34:11 10° N
GP-B 3.3 20:31:09 64° N 20:31:09 64° N 20:34:56 10° N
DASH 3.3 20:20:45 10° W 20:35:19 63° S 20:35:46 60° SSE
Cosmos 2278 Rocket 3.8 20:40:01 10° SW 20:45:06 34° WNW 20:50:14 10° N
Cosmos 2100 Rocket 3.8 20:49:24 80° SSE 20:49:43 84° E 20:56:06 10° N
Cosmos 1833 Rocket 3.9 20:47:04 10° N 20:50:13 29° NNE 20:50:13 29° NNE
Cosmos 2297 4.0 20:50:30 10° SSW 20:56:08 64° WNW 21:01:50 10° NNE
RESURS DK-1 4.2 20:56:00 10° NW 20:58:30 29° WNW 20:58:30 29° WNW
Envisat 4.1 21:11:56 40° W 21:11:56 40° W 21:16:18 10° NNW
Cosmos 2061 Rocket 4.3 21:13:20 62° NNW 21:13:20 62° NNW 21:18:43 10° N
Cosmos 2082 Rocket 3.5 21:14:00 10° NNW 21:17:10 35° NNW 21:17:10 35° NNW
USA 267 4.5 21:46:37 33° N 21:46:37 33° N 21:50:23 10° NNW
